[[{"header":{"parameterUnit":"m.s-1","parameterCategory":1,"la1":30.2991,"la2":30.254,"lo1":-89.0895,"lo2":-89.0444,"dy":0.0017,"dx":0.0017,"nx":28,"ny":28,"refTime":"2025-06-09T21:00:00:Z","depth":0,"parameterNumber":2,"parameterNumberName":"U-component_of_WINDS"},"data":[0,0,0,0,0,0,0,0,0,0,0,0,0,0,0,0,0,0,0,0,0,0,0,0,0,0,0,0,0,0,0,0,0,0,0,0,0,0,0,0,0,0,0,0,0,0,0,0,0,0,0,0,0,0,0,0,0,0,4.8964,4.8965,0,4.9082,4.9084,4.9085,4.9007,4.9003,4.9,4.8996,4.9118,4.9124,4.913,0,0,0,0,0,0,0,0,0,0,0,0,0,4.8668,4.8673,4.8964,4.8965,4.8967,4.9082,4.9084,4.9085,4.9008,4.9003,4.8999,4.8995,4.9115,4.9123,4.9131,0,0,0,0,0,0,0,0,0,0,0,0,0,4.8792,4.8675,4.8964,4.8942,4.8941,4.9082,4.9084,4.9086,4.9008,4.9003,4.8998,4.8993,4.9113,4.9122,4.9132,4.93,0,0,4.9162,4.9166,0,0,0,0,0,0,0,0,4.8785,4.8803,4.8944,4.8944,4.8943,4.9024,4.9023,4.9158,4.901,4.8983,4.8996,4.899,4.9091,4.9102,4.9136,4.9306,4.9311,4.9163,4.9169,4.9173,4.9176,0,0,0,0,0,0,0,4.8777,4.8798,4.9011,4.8946,4.8945,4.8925,4.8937,4.9049,4.9066,4.8985,4.8979,4.8995,4.909,4.9127,4.9138,4.9313,4.9163,4.9172,4.9178,4.9181,4.9622,4.9628,0,0,0,0,0,0,4.877,4.8791,4.9007,4.9014,4.8849,4.8935,4.8948,4.9004,4.9064,4.9068,4.8999,4.899,4.9113,4.9127,4.9142,4.934,4.9173,4.9182,4.9188,4.9616,4.9623,4.963,0,0,0,0,0,0,4.8764,4.879,4.9002,4.8901,4.8927,4.8946,4.9009,4.9009,4.9046,4.9075,4.9077,4.9034,4.9109,4.9129,4.9261,4.9343,4.9187,4.9196,4.9609,4.9618,4.9626,4.9739,0,0,0,0,0,0,4.8756,4.8788,4.8854,4.8903,4.8932,4.912,4.9014,4.9015,4.9063,4.9053,4.9108,4.9112,4.9106,4.9246,4.927,4.9354,4.9203,4.9602,4.9613,4.9624,4.9728,4.975,4.9769,0,0,0,0,0,4.8746,4.8881,4.8857,4.8884,4.9014,4.9125,4.9141,4.9131,4.907,4.9135,4.9153,4.9111,4.9331,4.9261,4.9287,4.9375,4.9597,4.961,4.9623,4.9718,4.9746,4.9769,0,0,0,0,0,0,4.8842,4.8888,4.8861,4.9018,4.9068,4.9111,4.9193,4.9161,4.923,4.9218,4.9202,4.9216,4.9353,4.9377,4.9298,4.9538,4.9454,4.9473,4.9517,4.9544,4.9564,4.9554,4.9212,0,0,0,0,0,4.8881,4.8968,4.9003,4.9137,4.9163,4.9174,4.9222,4.921,4.9261,4.9282,4.9309,4.9361,4.944,4.9494,4.9569,4.9731,4.974,4.9804,4.9825,4.9842,4.9858,4.9941,4.9968,4.9672,4.9672,4.9672,0,0,4.8963,4.8999,4.9055,4.9157,4.9194,4.9282,4.9192,4.9291,4.9355,4.9297,4.9422,4.9444,4.95,4.9646,4.9712,4.9671,4.9941,4.9858,4.9872,4.9878,4.9957,4.9985,5.001,4.9681,4.968,4.9678,0,0,4.9157,4.9195,4.9308,4.9347,4.9404,4.941,4.9437,4.9485,4.9497,4.9623,4.9579,4.9656,4.9795,4.9835,4.9874,5.008,5.0042,5.0105,5.0213,5.0294,5.0317,5.0338,5.0408,5.0433,5.0121,5.0122,5.0122,0,4.9252,4.9384,4.9371,4.9471,4.9516,4.9466,4.958,4.9618,4.9698,4.9729,4.9681,4.9852,4.9887,5.004,5.0089,5.0124,5.0152,5.0098,5.0315,5.0336,5.0355,5.0421,5.0448,5.0129,5.0128,5.0127,5.0126,0,4.9496,4.9588,4.9673,4.9749,4.9803,4.991,4.9912,4.9968,4.9951,4.9961,5.0087,5.0126,5.0207,5.0243,5.0228,5.0393,5.0365,5.0317,5.0231,5.039,5.0452,5.0477,5.0139,5.0136,5.0134,5.0132,0,0,4.9755,4.982,4.9851,4.9883,4.9941,5.0011,5.0115,5.0193,5.024,5.0296,5.038,5.0498,5.0452,5.0496,5.0485,5.0557,5.0712,5.0499,5.05,5.0534,5.0892,5.0925,5.0955,5.0688,5.0693,5.0697,5.0886,0,4.9949,5.0129,5.0119,5.0287,5.0369,5.0322,5.0411,5.0455,5.0467,5.0538,5.055,5.0632,5.0569,5.0594,5.0663,5.0679,5.0783,5.0665,5.0764,5.0767,5.0748,5.0988,5.1025,5.1201,5.091,5.0914,5.0917,0,5.02,5.0263,5.0439,5.0481,5.0515,5.0596,5.0664,5.0734,5.0782,5.0785,5.0832,5.0808,5.091,5.0823,5.0961,5.0881,5.0921,5.0935,5.0941,5.0948,5.085,5.0998,5.1257,5.1283,5.0956,5.0953,5.095,0,5.0366,5.0495,5.0616,5.0645,5.0699,5.0755,5.078,5.0823,5.087,5.093,5.0959,5.1031,5.1069,5.1124,5.1119,5.1057,5.1258,5.1172,5.1261,5.1261,5.1304,5.1301,5.1571,5.1335,5.1335,5.1334,5.1334,0,5.0583,5.0692,5.069,5.0765,5.0884,5.087,5.0988,5.1007,5.1045,5.112,5.1084,5.1156,5.1146,5.1217,5.1214,5.1326,5.1345,5.1348,5.1346,5.135,5.1349,5.1374,5.136,5.1341,5.134,5.1339,5.1337,0,5.0788,5.0793,5.092,5.0959,5.0971,5.1057,5.109,5.1159,5.1166,5.1262,5.1283,5.1296,5.1377,5.1377,5.1471,5.1469,5.1605,5.159,5.1589,5.1585,5.1672,5.1663,5.1965,5.2002,5.1746,5.1748,5.175,0,5.0925,5.1007,5.1054,5.1102,5.1129,5.1207,5.1253,5.1243,5.1292,5.1351,5.1413,5.149,5.1552,5.1683,5.17,5.177,5.1754,5.1855,5.1765,5.1765,5.1751,5.1745,5.1751,5.1872,5.1875,5.1877,5.1879,0,5.1166,5.1163,5.1231,5.13,5.1355,5.1409,5.1459,5.1499,5.1494,5.1551,5.1633,5.1681,5.1774,5.1851,5.1918,5.1942,5.1909,5.1908,5.1931,5.1935,5.1929,5.193,5.1633,5.1901,5.1898,5.1897,5.1896,5.1895,5.1338,5.1407,5.145,5.1526,5.1562,5.1608,5.1673,5.1688,5.1757,5.1832,5.1822,5.1912,5.1955,5.2041,5.2071,5.214,5.2105,5.214,5.2149,5.2157,5.2164,5.1921,5.2153,5.2153,5.2152,5.2151,5.2151,0,5.1573,5.1598,5.1668,5.1737,5.1797,5.1761,5.1813,5.1864,5.1944,5.1987,5.2047,5.214,5.2213,5.2234,5.2304,5.2355,5.2342,5.2374,5.2368,5.2373,5.2194,5.2165,5.2383,5.2383,5.2383,5.2383,5.2383,5.2383,5.1702,5.1816,5.1818,5.1947,5.1971,5.2059,5.2091,5.2132,5.2166,5.227,5.2331,5.2344,5.2377,5.2449,5.2513,5.2517,5.2543,5.2581,5.2579,5.241,5.2387,5.2364,5.2336,5.2587,5.2588,5.2751,5.2753,5.2754]},{"header":{"parameterUnit":"m.s-1","parameterCategory":1,"la1":30.2991,"la2":30.254,"lo1":-89.0895,"lo2":-89.0444,"dy":0.0017,"dx":0.0017,"nx":28,"ny":28,"refTime":"2025-06-09T21:00:00:Z","depth":0,"parameterNumber":3,"parameterNumberName":"V-component_of_WINDS"},"data":[0,0,0,0,0,0,0,0,0,0,0,0,0,0,0,0,0,0,0,0,0,0,0,0,0,0,0,0,0,0,0,0,0,0,0,0,0,0,0,0,0,0,0,0,0,0,0,0,0,0,0,0,0,0,0,0,0,0,3.2973,3.2974,0,3.3053,3.3054,3.3055,3.302,3.3018,3.3016,3.3014,3.3095,3.3099,3.3103,0,0,0,0,0,0,0,0,0,0,0,0,0,3.2787,3.2791,3.2973,3.2974,3.2975,3.3053,3.3054,3.3055,3.302,3.3018,3.3015,3.3013,3.3094,3.3099,3.3104,0,0,0,0,0,0,0,0,0,0,0,0,0,3.2868,3.2792,3.2973,3.2967,3.2967,3.3053,3.3054,3.3055,3.302,3.3018,3.3015,3.3012,3.3092,3.3098,3.3104,3.32,0,0,3.3123,3.3125,0,0,0,0,0,0,0,0,3.2863,3.2875,3.2967,3.2967,3.2968,3.3023,3.3018,3.3104,3.3021,3.3,3.3014,3.301,3.3074,3.3081,3.3103,3.3204,3.3208,3.3123,3.3127,3.3129,3.3131,0,0,0,0,0,0,0,3.2858,3.2871,3.3005,3.2968,3.2969,3.2959,3.2968,3.3035,3.3052,3.3002,3.2999,3.3009,3.3073,3.3097,3.3104,3.3209,3.3123,3.3128,3.3132,3.3134,3.3392,3.3395,0,0,0,0,0,0,3.2852,3.2867,3.3002,3.3007,3.2907,3.2965,3.2974,3.3008,3.3052,3.3055,3.3012,3.3007,3.3088,3.3097,3.3107,3.3222,3.3129,3.3135,3.3138,3.3389,3.3393,3.3396,0,0,0,0,0,0,3.2848,3.2865,3.2999,3.2936,3.2952,3.2972,3.301,3.3012,3.3035,3.3059,3.3062,3.3033,3.3086,3.3099,3.3177,3.3224,3.3138,3.3143,3.3385,3.339,3.3395,3.3453,0,0,0,0,0,0,3.2843,3.2864,3.2901,3.2937,3.2956,3.3068,3.3013,3.3015,3.3046,3.3041,3.308,3.3083,3.3085,3.3168,3.3183,3.3231,3.3148,3.3381,3.3387,3.3393,3.3447,3.3459,3.347,0,0,0,0,0,3.2837,3.2914,3.2903,3.2919,3.3003,3.3071,3.3082,3.3082,3.305,3.3087,3.3102,3.3082,3.3217,3.3177,3.3193,3.3243,3.3378,3.3386,3.3393,3.3442,3.3457,3.3469,0,0,0,0,0,0,3.2883,3.2919,3.2907,3.2998,3.3032,3.3065,3.3112,3.3098,3.3142,3.3135,3.3134,3.3143,3.3224,3.3241,3.3196,3.3338,3.3292,3.3303,3.3324,3.3338,3.335,3.3344,3.3153,0,0,0,0,0,3.2903,3.2956,3.2985,3.3062,3.308,3.3093,3.3123,3.312,3.3155,3.3169,3.319,3.3224,3.3274,3.3307,3.3355,3.3449,3.3457,3.3491,3.3503,3.3512,3.3522,3.3572,3.3588,3.3421,3.342,3.342,0,0,3.2947,3.2973,3.3006,3.3072,3.3098,3.3152,3.3106,3.3165,3.3205,3.3178,3.3254,3.327,3.3308,3.3395,3.3434,3.3412,3.3569,3.3521,3.3529,3.3533,3.3581,3.3597,3.3611,3.3425,3.3425,3.3424,0,0,3.3053,3.3079,3.3146,3.3173,3.3212,3.3221,3.3237,3.3272,3.3282,3.3358,3.3339,3.3386,3.3472,3.35,3.3525,3.3641,3.3624,3.3656,3.3716,3.3765,3.3779,3.379,3.3831,3.3846,3.3666,3.3666,3.3666,0,3.3102,3.3184,3.3182,3.3243,3.3273,3.3251,3.3318,3.3344,3.3397,3.3418,3.3392,3.3499,3.3523,3.3616,3.3644,3.3665,3.3683,3.3652,3.3777,3.3788,3.3799,3.3838,3.3854,3.367,3.3669,3.3669,3.3668,0,3.3241,3.3298,3.3348,3.3399,3.3434,3.3498,3.3506,3.3541,3.3535,3.3546,3.3623,3.3651,3.3703,3.3725,3.372,3.3817,3.3801,3.3776,3.373,3.3819,3.3856,3.3871,3.3675,3.3674,3.3672,3.3672,0,0,3.338,3.343,3.3448,3.3471,3.3512,3.3556,3.3618,3.367,3.3699,3.3736,3.3789,3.3861,3.3838,3.3867,3.3865,3.3908,3.3998,3.3877,3.3878,3.3899,3.4106,3.4124,3.4142,3.3986,3.3989,3.3991,3.4102,0,3.349,3.36,3.36,3.3701,3.3753,3.3733,3.3787,3.3818,3.3829,3.3874,3.3887,3.3938,3.3904,3.3921,3.3963,3.3978,3.4039,3.397,3.4034,3.4037,3.4026,3.4161,3.4181,3.4284,3.4117,3.4119,3.4121,0,3.3633,3.3674,3.3781,3.3814,3.3836,3.3885,3.3931,3.3975,3.4009,3.4014,3.4046,3.4037,3.41,3.4051,3.4138,3.4091,3.4117,3.4128,3.4132,3.4138,3.4084,3.4171,3.4317,3.4333,3.4144,3.4142,3.414,0,3.3723,3.3805,3.3879,3.39,3.394,3.3975,3.3994,3.4025,3.4056,3.4096,3.4116,3.4163,3.4189,3.4225,3.4229,3.4193,3.4316,3.4268,3.4321,3.4321,3.4348,3.4347,3.4501,3.4365,3.4365,3.4365,3.4365,0,3.3845,3.3911,3.392,3.3966,3.4039,3.4038,3.411,3.4125,3.4154,3.4201,3.4186,3.4231,3.4233,3.4279,3.4282,3.4353,3.4365,3.437,3.4371,3.4372,3.4371,3.4389,3.4382,3.4369,3.4368,3.4367,3.4367,0,3.3958,3.3967,3.4047,3.4078,3.4088,3.414,3.4167,3.421,3.422,3.4281,3.4295,3.431,3.4363,3.437,3.4432,3.4434,3.452,3.4512,3.4508,3.4507,3.456,3.4555,3.4732,3.4755,3.4604,3.4605,3.4607,0,3.4036,3.4086,3.4123,3.4154,3.4174,3.4225,3.4255,3.4256,3.4289,3.4331,3.4369,3.4421,3.4463,3.4549,3.4565,3.4612,3.4606,3.4665,3.4613,3.4613,3.4607,3.4604,3.4608,3.4675,3.4676,3.4678,3.4679,0,3.4172,3.4174,3.4219,3.4266,3.4304,3.434,3.4375,3.4401,3.4406,3.4444,3.4498,3.453,3.4593,3.4645,3.4692,3.471,3.4696,3.4695,3.471,3.4712,3.4707,3.471,3.4535,3.4691,3.469,3.4689,3.4688,3.4688,3.427,3.4313,3.4346,3.4397,3.4423,3.4455,3.4497,3.4512,3.4557,3.4609,3.4607,3.4666,3.4698,3.476,3.4781,3.4828,3.4808,3.483,3.4836,3.4841,3.4846,3.47,3.4836,3.4836,3.4836,3.4835,3.4835,0,3.4406,3.4425,3.4472,3.4521,3.4561,3.4543,3.458,3.4615,3.4667,3.4699,3.474,3.4802,3.4851,3.4871,3.492,3.4953,3.4947,3.4966,3.4963,3.4968,3.4861,3.4843,3.4969,3.4969,3.4969,3.4969,3.4969,3.4969,3.4481,3.4553,3.4559,3.4643,3.4662,3.4721,3.4744,3.4773,3.4798,3.4868,3.4909,3.4922,3.4948,3.4999,3.5043,3.5048,3.5066,3.5087,3.5089,3.4989,3.4975,3.4962,3.4946,3.5091,3.5092,3.5192,3.5193,3.5193]}]]